Wind_Speed
12 12 12 12 12 13 13 13 14 15 17 18 19 18 18 17 18 17 16 14 13 12 11 10 11 12 8 9 9 21 12 12 18 23 27 27 25 22 22 15 13 13 8 5 5 5 8
13 13 14 14 14 13 13 14 14 13 14 15 17 19 21 21 21 20 18 17 16 15 14 11 11 11 11 11 10 14 13 13 16 21 24 28 27 23 19 18 16 12 12 10 7 9 11
14 14 14 14 14 15 16 15 16 16 16 16 15 16 18 21 23 24 23 21 19 18 16 14 13 14 13 8 9 13 12 12 14 19 24 27 26 21 23 18 17 17 13 11 9 10 13
16 17 17 16 16 16 16 17 18 19 19 18 18 18 18 18 20 22 25 25 23 20 17 17 17 18 17 13 14 16 14 13 16 19 23 18 27 23 23 20 18 21 17 18 14 14 14
21 22 21 20 19 18 18 18 17 17 18 19 19 19 19 20 19 18 21 23 24 23 20 19 19 21 19 17 9 7 11 11 14 18 23 23 24 29 20 23 21 21 23 20 14 17 15
23 23 23 23 22 21 20 20 20 20 20 20 19 19 20 21 20 20 18 19 20 22 23 22 22 20 17 12 10 9 7 12 15 16 20 26 23 28 30 30 29 26 25 25 21 20 19
27 26 24 23 23 22 21 21 20 20 20 21 21 19 20 22 20 20 19 18 17 17 24 22 12 15 3 7 15 13 11 13 16 18 21 24 29 39 36 32 29 25 24 20 19 20 23
29 27 26 25 23 23 22 23 22 21 22 22 23 21 20 22 22 21 19 17 20 21 28 24 24 30 27 20 21 19 15 17 22 24 22 22 37 35 32 32 30 29 27 23 17 21 25
35 33 31 30 29 27 25 24 25 24 24 23 24 24 22 22 23 22 19 19 18 20 27 23 22 24 24 27 29 24 26 25 24 27 28 34 32 33 34 34 34 33 30 25 22 23 24
41 37 35 36 36 35 32 29 27 26 25 25 25 25 23 21 23 21 23 17 14 14 15 21 17 21 21 18 23 21 22 31 28 28 29 31 28 32 39 39 36 34 30 27 25 22 21
47 44 41 39 38 36 35 34 32 30 28 27 26 26 22 23 23 21 22 16 11 7 7 4 12 11 17 21 7 16 18 29 31 27 28 35 34 34 40 43 39 36 30 29 28 26 26
49 44 43 42 40 36 32 32 33 33 32 29 28 28 25 25 22 22 21 15 10 7 16 12 15 16 20 23 16 14 17 27 24 26 27 30 29 35 34 38 36 33 30 31 32 32 27
44 44 42 39 37 34 31 30 29 29 29 28 28 28 27 23 21 20 17 15 10 19 10 17 19 20 23 19 20 18 20 30 33 32 32 28 36 31 34 35 38 37 35 28 26 25 21
40 39 39 35 32 31 31 31 30 29 28 28 27 27 25 22 23 20 20 19 23 15 30 7 18 22 28 24 22 20 19 28 32 29 25 32 30 39 35 40 39 44 43 35 23 18 19
35 34 34 34 33 32 31 31 32 31 31 31 28 28 25 24 23 24 24 34 32 29 18 24 19 24 29 29 26 25 27 28 31 35 34 28 34 23 40 37 38 42 49 42 39 33 31
38 36 35 34 33 32 31 31 32 31 30 32 29 28 26 26 24 28 32 50 28 30 15 22 33 26 29 30 30 28 27 26 30 32 34 29 24 29 31 34 35 48 43 44 46 27 25
40 40 40 39 37 37 35 34 34 34 30 30 26 22 22 24 21 32 41 40 36 35 27 33 28 32 35 31 35 36 30 31 26 32 32 34 28 24 30 45 47 39 51 42 45 45 21
40 40 40 39 39 38 38 37 36 35 31 27 25 16 17 18 21 26 37 36 32 34 29 34 33 32 34 32 31 27 28 29 24 27 35 34 30 29 30 37 34 42 43 50 40 40 41
40 40 39 37 36 35 33 33 33 31 29 26 25 24 22 20 28 29 30 34 34 35 36 37 37 40 32 34 34 32 30 26 23 25 30 31 35 28 29 28 35 43 47 48 55 41 42
38 37 36 35 33 32 30 28 26 24 23 20 20 15 12 19 21 26 31 33 32 31 34 33 37 32 37 39 37 34 35 30 29 23 29 27 32 40 29 34 32 35 43 46 48 49 41
38 37 36 32 29 28 24 19 19 20 20 18 12 12 14 16 18 15 17 23 29 26 27 27 28 35 35 37 40 38 33 29 35 31 31 28 33 34 35 30 24 31 38 42 49 48 49
39 37 34 30 25 22 20 17 18 20 20 18 19 13 17 24 24 26 22 22 19 26 22 24 22 24 33 34 34 35 36 33 30 32 32 32 30 29 30 30 31 30 30 40 40 48 51
37 33 28 25 23 22 20 20 17 20 21 22 21 20 19 19 19 21 22 29 25 23 26 22 19 19 13 21 29 27 25 30 34 30 32 32 31 28 31 29 25 33 38 35 36 41 43
33 31 27 24 23 24 22 20 18 19 22 21 21 20 26 19 18 19 21 19 22 19 19 22 20 15 17 16 20 22 23 19 24 28 32 32 34 30 32 24 22 32 31 36 38 38 39
29 26 22 21 22 21 22 18 18 19 21 21 21 24 24 22 17 18 19 19 17 21 26 23 28 34 30 24 14 13 18 18 25 24 26 26 29 35 32 32 19 21 11 14 12 23 36
29 25 21 20 20 18 18 18 17 20 21 19 19 23 21 24 20 21 13 16 16 16 17 21 19 28 27 22 15 17 24 23 32 32 33 30 27 27 27 32 25 30 10 18 17 23 24
29 24 20 20 20 18 17 17 16 18 19 18 18 22 23 25 20 17 18 20 12 18 12 9 21 24 26 19 24 27 31 32 36 41 33 41 39 40 35 29 28 16 17 18 13 22 19
24 21 20 20 17 15 13 14 15 15 15 15 15 19 20 30 23 21 24 26 19 14 19 10 4 14 19 21 26 30 29 38 37 36 41 41 42 41 36 35 30 17 7 14 18 18 18
22 21 18 14 15 12 12 14 14 13 15 14 14 14 16 18 25 23 25 22 18 22 22 16 5 6 10 14 17 21 17 20 38 32 37 44 43 39 34 37 24 18 18 18 25 16 18
Wind_Direction
354 350 344 338 331 325 318 312 305 298 290 283 279 278 278 278 277 275 274 277 284 289 292 297 296 293 296 288 261 274 257 229 225 217 214 214 216 219 225 218 219 227 236 231 247 234 194
342 341 338 335 332 325 318 313 307 300 293 287 282 277 275 275 274 274 275 276 279 282 286 287 289 292 291 295 265 269 252 238 222 215 211 210 215 219 227 224 224 221 240 237 242 228 200
334 332 329 325 323 320 318 314 309 306 304 298 290 283 275 270 270 275 275 273 275 279 280 280 280 282 279 276 268 272 253 239 224 216 209 212 212 220 224 226 225 226 240 228 235 212 192
333 332 330 326 322 318 314 313 312 308 303 301 300 299 292 285 277 270 270 272 273 272 273 274 275 277 274 271 276 268 243 229 220 215 209 214 216 219 219 227 233 230 226 234 211 195 189
332 330 329 327 324 320 316 311 305 301 300 296 294 293 293 292 290 283 274 272 269 270 268 267 270 273 282 268 240 244 226 221 213 212 211 209 208 216 221 219 228 219 223 226 174 189 196
330 329 327 325 323 320 317 313 310 306 301 296 294 292 288 287 290 290 286 281 274 268 262 261 261 270 261 252 232 211 243 196 206 200 210 214 210 212 216 215 221 216 218 220 196 193 199
331 327 323 321 318 313 309 306 302 298 294 294 295 294 289 285 285 285 288 289 285 296 263 251 267 226 210 188 207 247 223 204 195 206 203 205 203 211 212 211 216 221 220 230 223 193 193
326 322 318 314 312 311 309 304 300 296 293 291 289 289 286 285 285 285 287 283 276 271 275 267 245 247 233 234 237 227 220 206 204 215 209 210 215 212 212 215 217 229 235 232 227 182 195
324 320 318 312 307 303 300 300 298 296 293 290 288 285 283 281 280 277 277 277 279 280 281 276 259 245 238 237 241 230 223 218 214 213 214 213 218 210 212 215 219 226 232 233 224 183 211
319 316 312 309 303 296 294 293 292 289 286 286 285 284 283 278 273 273 275 278 277 287 288 264 253 239 219 214 235 218 219 212 213 221 218 224 215 214 213 218 217 225 223 235 228 204 236
318 313 312 310 308 300 289 286 286 286 287 285 283 280 276 273 270 264 264 267 271 280 278 170 195 216 198 190 201 211 206 203 211 214 213 222 217 216 216 217 216 225 222 228 234 222 214
315 313 313 313 310 308 299 291 285 285 286 284 281 278 271 269 265 260 258 252 240 223 238 227 205 197 192 203 218 213 203 202 212 218 225 225 224 221 221 218 218 217 227 230 233 240 248
313 313 314 313 309 309 304 298 293 289 284 280 276 271 271 259 259 255 241 225 225 228 227 220 209 202 201 205 203 214 204 199 203 207 220 225 222 226 218 219 218 217 222 231 235 229 235
316 313 312 313 311 308 305 301 296 289 284 278 273 270 267 261 253 245 228 205 229 229 227 209 214 213 211 203 211 216 213 211 212 213 219 217 220 217 216 218 216 214 215 221 225 231 231
317 315 313 311 311 310 307 304 302 298 293 284 274 265 261 257 244 239 217 218 227 231 234 227 224 225 217 223 224 220 221 221 218 214 219 219 228 227 219 220 217 219 220 222 233 233 237
312 310 308 305 304 304 304 303 300 298 297 293 288 276 270 256 239 233 224 231 235 230 238 231 230 223 229 221 219 225 220 230 228 224 218 226 243 224 219 218 224 223 220 221 230 240 242
308 307 305 303 302 300 297 295 295 295 296 298 301 289 269 259 242 229 230 239 241 234 238 239 235 235 233 235 233 227 233 235 235 225 221 221 226 230 214 213 218 216 227 224 227 232 243
305 303 302 301 300 298 297 296 294 294 295 292 290 281 264 258 243 238 242 244 241 239 243 235 234 234 239 237 233 237 229 229 227 220 215 216 220 225 227 225 224 224 225 225 229 226 236
304 303 302 301 301 300 301 300 298 298 296 291 282 271 266 248 248 249 250 248 247 244 242 239 239 234 232 240 241 232 231 221 225 218 215 209 220 222 224 232 221 221 223 225 226 232 230
304 302 302 302 302 302 301 299 297 296 296 294 285 279 271 253 252 251 252 251 249 241 242 244 237 234 236 238 232 235 231 220 219 218 224 212 219 221 220 223 222 220 222 227 227 231 233
301 301 302 303 301 301 301 299 291 289 290 297 286 263 270 245 236 288 258 244 251 253 243 241 244 235 233 235 234 231 229 227 222 225 231 216 224 225 227 239 229 229 222 226 231 234 236
307 307 306 304 304 306 304 300 287 280 274 274 273 274 258 254 260 278 267 263 262 260 264 258 258 237 234 236 232 230 225 221 216 213 215 212 224 227 231 229 234 244 232 228 230 237 238
308 306 303 297 294 292 291 294 291 275 267 267 269 275 277 277 268 264 263 251 260 258 251 251 253 286 240 235 247 235 223 223 220 209 212 211 213 219 229 227 236 233 234 237 238 235 235
309 304 302 302 290 283 283 284 280 281 270 267 273 269 269 278 274 260 271 262 254 256 246 231 256 249 245 293 257 241 224 216 211 215 219 217 217 224 232 221 232 240 240 243 242 243 240
315 309 298 292 296 287 282 283 277 275 276 269 264 266 252 274 277 274 269 270 268 265 258 255 231 241 257 268 286 237 219 223 224 214 212 213 213 220 231 230 240 249 249 231 269 251 239
319 312 304 292 291 289 286 283 274 272 280 273 270 265 261 271 282 265 286 259 262 256 263 243 252 228 235 254 251 240 216 214 225 226 220 214 215 225 215 236 236 236 211 234 257 272 252
318 314 303 294 293 293 292 282 284 275 282 272 268 265 256 261 276 276 271 263 246 257 262 221 224 220 233 238 235 225 228 217 227 219 208 213 216 218 224 236 234 219 246 257 239 263 243
327 322 307 294 299 298 296 290 288 279 287 278 270 264 266 259 278 271 261 267 254 248 236 308 215 208 214 221 212 220 227 225 226 225 213 207 206 216 220 230 240 237 222 240 250 274 268
329 326 321 307 302 299 297 295 289 275 289 279 273 260 273 260 272 283 282 269 248 237 243 265 257 212 194 219 220 229 234 229 225 246 211 211 210 207 217 223 224 222 236 252 260 290 283
Height
3175 3172 3169 3167 3164 3162 3159 3158 3157 3155 3153 3152 3151 3150 3149 3148 3147 3147 3146 3145 3145 3144 3143 3142 3141 3140 3140 3139 3138 3135 3137 3138 3140 3145 3150 3156 3161 3166 3168 3170 3171 3171 3170 3171 3171 3172 3172
3174 3171 3168 3165 3162 3160 3158 3155 3153 3151 3150 3149 3148 3147 3146 3144 3143 3143 3143 3143 3142 3141 3140 3140 3138 3137 3136 3136 3137 3133 3134 3136 3138 3142 3147 3152 3157 3164 3167 3168 3169 3169 3169 3169 3170 3170 3171
3173 3170 3167 3164 3161 3158 3156 3153 3150 3148 3146 3144 3143 3142 3140 3139 3139 3139 3138 3138 3139 3138 3137 3136 3135 3134 3133 3133 3133 3130 3131 3134 3136 3139 3144 3149 3155 3161 3164 3165 3167 3167 3168 3168 3168 3168 3169
3170 3167 3164 3160 3157 3154 3152 3150 3147 3145 3142 3140 3138 3137 3136 3135 3134 3134 3133 3133 3133 3134 3134 3133 3132 3130 3127 3130 3129 3128 3128 3130 3133 3137 3141 3149 3151 3157 3161 3165 3164 3165 3165 3162 3162 3166 3167
3166 3163 3160 3157 3154 3151 3148 3146 3144 3142 3139 3136 3134 3133 3130 3129 3128 3128 3127 3127 3128 3128 3128 3128 3128 3127 3125 3123 3124 3125 3125 3127 3130 3134 3137 3143 3146 3151 3158 3160 3160 3159 3158 3158 3159 3161 3165
3164 3161 3157 3154 3150 3147 3144 3141 3138 3137 3135 3133 3131 3130 3127 3124 3123 3122 3122 3122 3122 3123 3123 3123 3123 3125 3121 3122 3122 3123 3124 3126 3130 3132 3134 3138 3143 3147 3151 3154 3152 3153 3154 3151 3152 3158 3162
3159 3156 3153 3150 3147 3144 3141 3138 3135 3133 3130 3127 3125 3125 3123 3120 3119 3117 3118 3117 3120 3118 3115 3116 3119 3116 3117 3119 3119 3119 3121 3123 3128 3130 3131 3134 3139 3136 3144 3148 3151 3149 3148 3147 3150 3150 3159
3156 3152 3148 3145 3142 3138 3135 3132 3129 3127 3125 3122 3120 3119 3118 3116 3115 3114 3114 3114 3112 3112 3106 3107 3108 3107 3110 3115 3115 3116 3120 3122 3124 3126 3129 3133 3128 3137 3144 3147 3149 3147 3144 3145 3147 3148 3154
3150 3146 3141 3137 3134 3131 3127 3124 3122 3120 3118 3116 3113 3112 3112 3110 3109 3109 3108 3109 3109 3108 3103 3098 3098 3099 3102 3106 3104 3108 3113 3116 3119 3121 3123 3123 3127 3135 3138 3141 3143 3144 3142 3141 3143 3142 3153
3142 3138 3133 3128 3125 3122 3119 3116 3113 3112 3110 3108 3107 3106 3105 3105 3105 3104 3105 3106 3106 3106 3101 3094 3090 3091 3094 3099 3098 3099 3104 3110 3114 3116 3119 3121 3126 3127 3131 3134 3139 3138 3142 3140 3140 3145 3145
3133 3128 3123 3118 3115 3111 3109 3106 3104 3102 3101 3100 3100 3099 3100 3098 3098 3099 3099 3101 3104 3106 3101 3088 3088 3085 3088 3095 3097 3096 3099 3104 3106 3110 3115 3113 3117 3120 3122 3125 3133 3135 3139 3140 3138 3137 3144
3123 3118 3114 3109 3103 3101 3098 3095 3094 3093 3092 3092 3091 3091 3092 3090 3091 3092 3095 3097 3101 3106 3089 3084 3083 3081 3086 3087 3093 3094 3094 3099 3104 3106 3108 3109 3113 3116 3118 3124 3128 3135 3136 3135 3136 3133 3127
3113 3108 3103 3099 3095 3093 3090 3088 3086 3084 3083 3083 3082 3082 3081 3083 3085 3086 3088 3094 3100 3087 3079 3078 3078 3080 3082 3082 3086 3089 3090 3090 3092 3097 3098 3104 3104 3109 3113 3118 3123 3128 3131 3129 3126 3121 3120
3103 3099 3095 3092 3088 3085 3082 3079 3076 3075 3074 3073 3073 3072 3074 3076 3076 3079 3083 3088 3081 3067 3071 3072 3073 3075 3077 3078 3079 3082 3084 3085 3087 3089 3091 3093 3095 3099 3103 3106 3113 3116 3120 3117 3117 3113 3115
3097 3094 3090 3085 3082 3078 3074 3071 3067 3065 3063 3062 3063 3062 3065 3065 3069 3071 3074 3068 3056 3066 3067 3068 3070 3069 3070 3073 3075 3075 3076 3077 3079 3082 3083 3083 3086 3093 3097 3104 3110 3108 3108 3115 3115 3111 3109
3091 3087 3083 3080 3075 3071 3066 3063 3059 3058 3056 3053 3054 3054 3057 3055 3059 3060 3060 3044 3052 3059 3062 3062 3060 3062 3063 3064 3067 3067 3067 3070 3072 3074 3078 3079 3081 3084 3090 3099 3099 3099 3107 3109 3104 3101 3098
3084 3079 3075 3071 3067 3063 3060 3056 3052 3050 3050 3047 3048 3047 3047 3047 3049 3048 3039 3040 3047 3049 3054 3059 3054 3055 3054 3056 3057 3056 3059 3064 3066 3068 3071 3075 3076 3079 3083 3078 3083 3092 3092 3095 3101 3101 3095
3075 3070 3066 3062 3058 3055 3051 3048 3044 3041 3042 3040 3041 3043 3039 3041 3042 3039 3034 3040 3043 3042 3047 3046 3047 3045 3049 3050 3050 3048 3049 3053 3057 3061 3061 3066 3070 3070 3070 3076 3082 3085 3087 3091 3089 3093 3092
3066 3061 3056 3052 3049 3045 3042 3039 3036 3033 3032 3032 3031 3030 3034 3034 3031 3031 3031 3030 3032 3033 3036 3038 3036 3040 3043 3044 3044 3044 3045 3047 3050 3056 3054 3060 3061 3063 3067 3070 3071 3071 3075 3078 3083 3086 3082
3055 3051 3046 3043 3040 3037 3034 3031 3029 3027 3025 3025 3025 3026 3030 3025 3024 3025 3025 3021 3021 3024 3025 3027 3027 3030 3034 3035 3036 3037 3039 3041 3045 3051 3050 3051 3053 3052 3048 3056 3062 3066 3069 3072 3074 3073 3077
3047 3043 3038 3034 3032 3029 3026 3025 3023 3021 3020 3019 3020 3020 3023 3019 3018 3012 3013 3012 3016 3014 3018 3022 3021 3019 3022 3025 3031 3028 3033 3035 3037 3043 3045 3047 3046 3048 3049 3050 3054 3056 3060 3065 3065 3066 3067
3038 3034 3030 3027 3024 3021 3020 3018 3018 3015 3014 3015 3014 3015 3013 3012 3011 3008 3007 3008 3009 3011 3013 3009 3011 3014 3018 3016 3023 3023 3026 3027 3027 3036 3039 3041 3041 3044 3044 3047 3050 3050 3052 3055 3059 3062 3063
3030 3025 3021 3019 3017 3015 3014 3013 3012 3010 3008 3007 3008 3007 3005 3006 3006 3006 3004 3004 3005 3006 3007 3005 3006 2998 3004 3014 3008 3006 3007 3018 3022 3027 3032 3034 3036 3040 3038 3042 3043 3046 3043 3046 3049 3053 3057
3021 3017 3014 3012 3011 3008 3008 3007 3006 3004 3003 3002 3000 3002 3000 3000 3001 2999 2997 2998 2998 2998 3000 3001 2999 2998 2997 2994 2996 2998 3002 3006 3009 3017 3024 3027 3030 3035 3035 3037 3036 3031 3039 3042 3044 3046 3050
3013 3009 3006 3004 3003 3002 3001 3000 2999 2998 2997 2996 2997 2996 2993 2992 2996 2995 2994 2992 2993 2994 2994 2995 2995 2995 2995 2996 2997 2996 3000 3002 3005 3012 3018 3022 3026 3031 3029 3027 3032 3031 3037 3033 3034 3036 3041
3007 3003 3001 2999 2997 2996 2995 2994 2993 2993 2991 2991 2990 2990 2988 2988 2987 2988 2987 2987 2988 2988 2989 2989 2991 2992 2995 2996 2997 2993 2994 2997 3004 3010 3015 3019 3023 3024 3023 3021 3015 3023 3026 3027 3032 3033 3037
3002 2998 2996 2993 2992 2990 2989 2988 2988 2987 2986 2986 2985 2985 2983 2982 2981 2983 2982 2981 2982 2983 2981 2981 2981 2986 2990 2992 2994 2994 2994 2996 2999 3000 3005 3008 3013 3014 3019 3015 3017 3018 3021 3027 3032 3036 3030
2997 2993 2991 2988 2987 2986 2985 2984 2983 2983 2982 2981 2981 2980 2980 2976 2975 2977 2977 2976 2976 2979 2976 2971 2981 2981 2988 2991 2992 2990 2989 2987 2992 2991 2993 2997 3004 3006 3014 3015 3014 3013 3021 3026 3025 3025 3026
2994 2990 2987 2985 2983 2983 2981 2980 2979 2979 2978 2977 2977 2977 2975 2972 2972 2971 2968 2969 2970 2973 2976 2977 2977 2978 2983 2984 2984 2981 2981 2980 2984 2983 2986 2990 2991 3001 3008 3009 3007 3009 3014 3018 3021 3024 3024